Location: Edmonton
(53.5500°N, 113.5000°W)
Time: 11:53:39
(UTC-07:00)

Daily predictions for brighter satellites

Satellite Brightness Start Highest point End
(mag) Time Altitude Azimuth Time Altitude Azimuth Time Altitude Azimuth
CENTAUR R/B 3.4 16:46:38 10° NW 16:53:32 44° NNE 17:01:13 10° E
BREEZE-M DEB (TANK) 3.7 16:52:37 10° WSW 16:54:46 38° S 16:57:58 10° ESE
Cosmos 2227 Rocket 2.3 16:49:32 10° NNW 16:55:07 54° NE 17:00:40 10° SE
Cosmos 1455 Rocket 3.8 16:52:09 10° N 16:56:08 31° ENE 17:00:02 10° SE
Cosmos 1544 Rocket 4.2 16:56:27 10° N 17:00:30 35° ENE 17:04:28 10° SE
USA 161 2.6 16:58:02 10° NE 17:00:34 28° E 17:03:11 10° SSE
ERS-2 4.0 16:59:45 10° E 17:01:20 12° NE 17:02:56 10° NNE
Cosmos 1271 Rocket 3.2 16:58:20 10° N 17:01:54 37° ENE 17:05:28 10° SE
CZ-2C R/B 2.5 16:56:51 10° SSE 17:02:03 85° ENE 17:07:12 10° NNW
Cosmos 2219 3.6 16:56:32 10° NW 17:02:08 71° WSW 17:07:43 10° SSE
Cosmos 2034 Rocket 4.4 16:56:45 10° SSW 17:03:00 69° WNW 17:09:14 10° N
Cosmos 2278 Rocket 4.1 17:00:02 10° NW 17:03:20 15° NNW 17:06:39 10° NNE
Aureole 1 Rocket 4.3 17:06:32 10° NNW 17:12:07 75° WSW 17:19:25 10° SSE
Cosmos 1898 Rocket 3.6 17:07:07 10° S 17:12:15 62° ESE 17:17:29 10° NNE
Ariane Rocket 3.2 17:08:09 10° SE 17:13:02 50° ENE 17:17:55 10° N
Meteor 1-12 Rocket 4.2 17:07:54 10° N 17:13:36 74° ENE 17:19:20 10° SSE
YAOGAN 1 3.5 17:10:20 10° ESE 17:13:58 27° ENE 17:17:38 10° N
Cosmos 1269 Rocket 4.4 17:10:20 10° NNW 17:15:23 41° NE 17:20:23 10° ESE
Cosmos 1943 Rocket 2.8 17:11:29 10° SW 17:17:00 53° NW 17:22:36 10° NNE
Cosmos 389 Rocket 2.4 17:13:58 10° N 17:17:28 66° ENE 17:20:55 10° SSE
Cosmos 1428 Rocket 4.5 17:11:39 10° N 17:17:52 69° ENE 17:23:59 10° SSE
AQUARIUS 4.4 17:15:13 10° SE 17:19:32 49° ENE 17:23:54 10° N
Cosmos 1666 2.8 17:17:15 10° N 17:20:56 49° ENE 17:24:34 10° SSE
Cosmos 2297 Rocket 2.2 17:16:08 10° NNW 17:21:48 68° NE 17:27:26 10° SE
Cosmos 1937 Rocket 3.6 17:17:00 10° S 17:22:02 55° ESE 17:27:04 10° NNE
USA 238 DEB 4.0 17:15:01 10° NW 17:22:06 79° SW 17:29:16 10° SE
USA 238 4.0 17:15:07 10° NW 17:22:12 79° SW 17:29:22 10° SE
Okean 1 3.4 17:18:32 10° S 17:22:25 56° E 17:26:20 10° NNE
COSMO-SKYMED 1 4.4 17:21:49 12° ENE 17:22:56 13° E 17:24:53 10° ESE
Cosmos 1048 Rocket 4.2 17:20:34 10° NNW 17:25:53 55° ENE 17:31:10 10° SE
Cosmos 1484 Rocket 2.9 17:22:31 10° SSE 17:26:28 57° ENE 17:30:25 10° N
Cosmos 1818 3.6 17:24:09 10° SW 17:29:35 89° SE 17:34:39 12° NE
Cosmos 1812 3.3 17:26:53 10° SSW 17:30:42 58° WNW 17:34:33 10° N
SJ 16-02 2.8 17:30:19 10° SE 17:33:21 19° E 17:35:02 15° ENE
Cosmos 2142 Rocket 4.4 17:28:14 10° S 17:34:23 82° E 17:40:33 10° NNE
Okean 3 4.2 17:30:21 10° SSW 17:34:28 54° WNW 17:38:39 10° N
Cosmos 1975 3.1 17:30:55 10° NNW 17:34:57 71° W 17:38:59 10° S
SOZ 4.5 17:31:33 10° W 17:35:38 67° S 17:37:29 15° E
Cosmos 1975 Rocket 3.1 17:31:30 10° S 17:35:58 72° E 17:40:27 10° NNE
IRS-1A Rocket 4.3 17:32:16 10° SE 17:37:40 55° ENE 17:43:03 10° N
Cosmos 2298 Rocket 4.0 17:34:01 10° SSW 17:39:18 71° ESE 17:44:36 10° NNE
IDEFIX/ARIANE 42P 4.1 17:34:40 10° SSW 17:39:31 40° W 17:44:23 10° NNW
Cosmos 724 4.3 17:34:54 10° NW 17:40:45 85° SW 17:46:33 10° SE
Cosmos 2279 Rocket 4.0 17:36:20 10° S 17:42:32 68° E 17:48:46 10° NNE
COSMOS 2455 4.1 17:38:10 10° NW 17:43:04 25° NNE 17:46:22 16° NE
NOSS 2-3 (D) 4.0 17:38:19 10° SW 17:43:09 77° SE 17:47:54 16° NE
SMAP 3.0 17:40:08 10° SSE 17:44:48 82° ENE 17:49:29 10° NNW
Cosmos 990 Rocket 3.9 17:42:00 10° SSW 17:47:09 80° ESE 17:52:13 11° NNE
NOSS 3-1 (C) 4.2 17:41:35 10° W 17:47:34 49° NNW 17:53:16 15° NE
NOSS 3-2 (A) 4.0 17:43:30 10° NW 17:50:46 85° SW 17:58:50 10° SE
Meteor 2-4 Rocket 4.0 17:47:52 10° SSE 17:52:52 40° E 17:57:51 10° NNE
CSL-04 Debris 4.3 17:48:51 10° SSE 17:54:15 81° WSW 17:59:41 10° NNW
Meteor 1-28 Rocket 3.5 17:54:35 17° NNE 17:57:14 44° E 18:00:51 10° S
Cosmos 2263 Rocket 3.3 17:53:13 10° NNW 17:57:41 24° NNE 17:59:25 20° ENE
NOSS 3-2 (C) 4.0 17:51:13 10° NW 17:58:29 88° NE 18:06:34 10° SE
NOAA 12 4.4 17:53:37 10° SE 17:58:32 42° ENE 18:03:27 10° N
ALOS 2.7 17:54:44 10° SE 17:59:04 39° ENE 18:03:25 10° N
PKM 4.1 17:57:41 10° SW 18:03:08 57° SSE 18:04:32 29° E
Meteor 1-13 Rocket 4.2 17:57:47 10° S 18:03:18 61° E 18:08:59 10° NNE
Cosmos 158 Rocket 4.3 17:58:16 10° NNW 18:03:23 67° WSW 18:08:20 10° SSE
Cosmos 2369 4.3 17:58:18 10° S 18:03:28 37° ESE 18:06:28 22° ENE
Cosmos 2278 4.3 17:58:55 10° S 18:04:02 36° ESE 18:06:55 22° ENE
Cosmos 1536 Rocket 3.8 18:00:02 10° SSE 18:04:12 47° E 18:07:22 16° NNE
ATLAS 3B R/B 3.6 17:58:21 10° NW 18:04:48 50° SW 18:11:03 10° SSE
CZ-4 R/B 1.3 18:01:12 10° SSE 18:05:07 86° WSW 18:09:09 10° NNW
Cosmos 2180 Rocket 4.5 17:59:24 10° S 18:05:47 81° E 18:12:14 10° NNE
Cosmos 1743 3.8 18:03:40 10° NNW 18:07:26 48° W 18:11:10 10° S
FENGYUN 3A 3.8 18:02:55 10° SE 18:08:05 49° ENE 18:13:15 10° N
METEOR-M 4.0 18:03:52 10° SSE 18:09:11 74° ENE 18:14:33 10° NNW
ATLAS 2AS CENTAUR R/B 3.1 18:02:43 10° SSW 18:10:35 72° SE 18:16:35 20° NE
CSL-04 Rocket 4.4 18:05:42 10° S 18:11:03 57° WSW 18:16:32 10° NNW
SKYMED 2 4.3 18:10:25 28° ENE 18:11:32 32° E 18:15:26 10° SSE
NOSS 2-3 (E) 4.2 18:08:19 10° SW 18:13:16 75° NW 18:17:09 22° NE
Meteor 1-15 Rocket 4.3 18:07:22 10° N 18:13:17 65° ENE 18:19:10 10° SSE
DNEPR-1 R/B 3.9 18:10:08 10° NW 18:14:54 73° NE 18:20:36 10° SE
Abrixas rocket 3.5 18:15:58 10° WSW 18:18:54 31° S 18:19:50 26° SE
Cosmos 2369 Rocket 4.0 18:14:39 10° W 18:18:58 22° NNW 18:23:10 10° NNE
Cosmos 1697 Rocket 3.4 18:16:49 10° SSE 18:21:43 31° ESE 18:22:52 29° E
Cosmos 2150 Rocket 4.4 18:17:55 10° SW 18:23:22 66° WNW 18:27:58 15° NNE
Landsat 4 4.0 18:24:57 43° E 18:25:22 45° E 18:29:02 10° S
Meteor 1-19 Rocket 4.3 18:20:51 10° SSW 18:26:35 86° WNW 18:32:28 10° NNE
BREEZE-M DEB (TANK) 3.4 18:24:32 10° WSW 18:26:58 45° S 18:28:46 28° ESE
NOSS 3-1 (A) 4.3 18:21:01 10° W 18:27:00 45° NNW 18:31:12 22° NE
USA 161 4.1 18:27:43 10° NNW 18:29:54 20° WNW 18:32:09 10° WSW
OPS 6432 4.3 18:28:47 10° WSW 18:31:58 63° NW 18:32:19 56° N
NOSS 3-4 (A) 4.3 18:26:49 10° S 18:32:10 31° ESE 18:33:17 29° E
NOSS 3-4 (C) 4.3 18:26:57 10° S 18:32:16 30° ESE 18:33:20 29° E
ERS-2 2.0 18:30:45 10° SSE 18:34:25 86° ENE 18:38:07 10° NNW
Cosmos 2266 Rocket 4.2 18:30:11 10° NNW 18:36:14 72° W 18:42:20 10° S
Cosmos 2227 Rocket 3.8 18:33:54 10° NW 18:39:01 36° WSW 18:44:06 10° S
SPOT 3 Rocket 3.5 18:38:34 10° SSE 18:43:45 89° ENE 18:48:58 10° NNW
USA 116 3.1 18:44:09 80° WNW 18:44:10 80° WNW 18:47:17 10° SSW
CENTAUR R/B 3.0 18:37:37 10° NW 18:45:14 82° NE 18:51:51 18° SE
FengYun 1-2 T 4.2 18:42:49 10° SE 18:48:20 59° ENE 18:53:54 10° N
YAOGAN 1 3.6 18:45:45 10° S 18:49:54 46° W 18:54:06 10° NNW
Cosmos 2278 Rocket 4.1 18:46:52 10° NNW 18:49:57 15° NNE 18:50:12 15° NNE
Cosmos 2251 Rocket 3.4 18:46:22 10° NNW 18:51:42 70° ENE 18:54:11 32° SE
Cosmos 1844 Rocket 4.3 18:49:28 10° NNW 18:52:43 19° NNE 18:52:43 19° NNE
Cosmos 494 Rocket 4.0 18:49:51 10° NNW 18:55:09 83° WSW 19:00:25 10° SSE
Meteor 1-22 Rocket 4.4 18:52:33 10° N 18:58:26 50° ENE 18:58:55 49° E
COSMO-SKYMED 1 2.4 18:59:01 60° NNE 18:59:47 86° ESE 19:04:08 10° SSW
Cosmos 1943 Rocket 4.2 18:58:03 10° WNW 19:02:06 19° NNW 19:05:02 14° N
Cosmos 1980 Rocket 3.0 18:57:29 10° S 19:01:25 34° SE 19:01:25 34° SE
CZ-2C R/B 4.2 19:00:01 21° N 19:03:02 63° WNW 19:07:42 10° SSW
Meteor 1-23 Rocket 4.2 18:58:47 10° SSW 19:04:32 87° WNW 19:08:32 21° NNE
Cosmos 2297 Rocket 4.3 19:00:45 10° NW 19:05:26 27° WSW 19:10:06 10° SSW
Cosmos 1125 Rocket 3.5 19:00:34 10° SSW 19:05:53 80° WNW 19:07:46 41° NNE
Cosmos 1244 Rocket 4.5 19:04:59 10° NNW 19:11:10 82° W 19:17:19 10° S
SJ 16-02 1.6 19:07:06 10° SSW 19:11:29 67° WNW 19:12:04 59° NNW
Cosmos 1656 3.6 19:11:19 10° SSW 19:16:53 84° WNW 19:18:01 58° NNE
Cosmos 372 Rocket 4.3 19:16:41 10° SW 19:21:50 64° WNW 19:23:10 47° N
Cosmos 2227 4.4 19:18:57 10° NW 19:24:43 73° WSW 19:27:11 35° SSE
COSMOS 2455 3.3 19:24:31 10° NW 19:29:31 46° NNE 19:29:31 46° NNE
SL-08 R/B 4.4 19:26:30 10° NNW 19:32:50 85° W 19:39:04 10° S
Cosmos 1025 Rocket 4.1 19:30:55 10° SSW 19:33:53 40° SW 19:33:53 40° SW
ALOS 3.9 19:32:21 10° SSW 19:36:35 34° W 19:40:50 10° NNW
Cosmos 1553 Rocket 4.1 19:31:58 10° S 19:37:23 63° SSE 19:37:23 63° SSE
Cosmos 1417 Rocket 4.3 19:35:20 10° S 19:41:31 86° E 19:41:34 86° ENE
Cosmos 2263 Rocket 2.6 19:36:56 10° NNW 19:41:09 52° NNW 19:41:09 52° NNW
Cosmos 1745 Rocket 3.9 19:38:22 10° NNW 19:44:35 85° W 19:46:06 55° S
Cosmos 2369 4.3 19:41:58 10° SW 19:47:33 52° NW 19:48:27 47° NNW
Cosmos 2278 4.3 19:42:28 10° SW 19:48:02 54° NW 19:48:51 49° NNW
ATLAS 2AS CENTAUR R/B 3.5 19:54:14 10° WSW 20:02:07 54° NNW 20:04:01 46° NNE
Cosmos 2369 Rocket 4.5 20:02:37 10° NNW 20:04:58 13° N 20:04:58 13° N
Cosmos 1697 Rocket 3.3 19:59:50 10° SW 20:04:38 54° W 20:04:38 54° W
NOSS 3-4 (A) 4.1 20:16:12 10° SW 20:20:45 51° WSW 20:20:45 51° WSW
NOSS 3-4 (C) 4.1 20:16:17 10° SW 20:20:48 50° WSW 20:20:48 50° WSW
CENTAUR R/B 4.2 20:28:36 10° NW 20:35:39 38° WSW 20:39:08 27° SSW
Cosmos 1980 Rocket 4.1 20:41:02 10° SW 20:43:14 23° WSW 20:43:14 23° WSW
SJ 16-02 4.5 20:48:30 10° WNW 20:49:07 12° WNW 20:49:07 12° WNW
